Location: Goettingen
(51.5300°N, 9.9433°E)
Time: 13:47:29
(UTC+02:00)

ISS - Pass Details

Date: 18 May 2018
Orbit: 402 x 407 km, 51.6° (Epoch: 26 May)

Event Time Altitude Azimuth Distance (km) Brightness Sun altitude
Exits shadow 01:48:18 75° 169° (S) 421 -4.0 -18.6°
Maximum altitude 01:48:18 75° 168° (SSE) 421 -4.0 -18.6°
Drops below altitude 10° 01:51:34 10° 81° (E) 1,459 -0.8 -18.6°
Sets 01:53:39 0° 80° (E) 2,320 0.3 -18.5°
